Vorticity
nan nan nan nan nan nan nan nan nan nan nan nan nan nan nan nan nan nan nan nan nan nan nan nan nan nan nan nan nan nan nan nan nan nan nan nan nan nan nan nan nan nan nan nan nan nan nan nan nan nan nan nan nan nan nan nan nan nan nan nan nan nan nan nan nan nan nan nan nan nan nan nan nan nan nan nan nan nan nan nan nan nan nan nan nan nan nan nan nan nan nan nan nan nan nan nan nan nan nan nan nan nan nan
nan 5 4 5 7 8 8 7 6 5 4 4 4 4 4 4 4 4 4 4 4 5 6 7 8 8 8 8 8 8 8 8 8 8 7 7 6 6 5 5 4 4 4 3 4 4 7 8 7 5 5 6 6 5 3 3 4 5 7 9 8 10 11 6 7 8 7 6 4 3 4 6 7 9 13 15 15 13 8 4 3 3 3 4 5 5 4 4 4 4 4 4 4 4 4 4 4 5 5 5 5 5 nan
nan 5 5 6 7 8 8 7 6 5 4 4 4 4 4 4 3 3 3 4 5 5 6 8 8 9 9 9 10 10 10 10 10 9 9 8 8 7 6 5 4 4 3 3 3 3 3 5 5 4 4 5 6 6 5 5 5 6 8 9 9 11 11 3 4 6 6 5 4 3 4 4 4 4 6 8 10 9 8 6 5 4 4 4 4 4 4 4 4 4 4 4 4 4 5 5 5 5 6 6 6 6 nan
nan 5 5 6 7 8 7 6 6 5 4 4 4 4 4 4 4 3 3 4 5 6 7 8 9 10 10 11 11 12 12 11 11 11 10 10 9 8 7 5 4 4 3 3 4 4 2 2 3 4 4 4 5 5 6 7 7 8 9 8 8 11 9 5 4 4 4 4 4 4 4 4 4 3 3 4 5 5 5 5 5 5 4 4 4 4 4 4 4 4 4 4 4 5 5 5 6 6 6 6 6 6 nan
nan 5 5 6 7 8 7 6 6 5 5 4 4 4 4 4 3 3 3 4 5 6 7 8 9 10 11 11 11 11 11 11 11 11 10 10 9 8 6 5 4 4 3 3 4 6 6 5 4 4 3 4 5 5 5 7 8 8 8 7 6 8 7 6 5 4 3 3 3 4 5 4 4 3 3 3 3 3 3 4 4 4 4 4 4 4 4 4 5 5 4 5 5 5 6 6 6 7 6 7 6 6 nan
nan 5 5 5 6 7 7 6 6 5 5 4 4 4 4 4 3 3 4 4 5 6 7 8 9 10 11 11 11 11 10 10 10 10 10 9 8 7 6 5 4 3 3 3 3 5 6 6 6 5 4 5 6 6 6 6 7 7 7 6 5 5 5 7 7 5 4 2 2 3 4 5 5 4 4 3 3 3 3 3 3 4 4 4 4 4 5 5 5 5 5 6 6 6 6 7 7 7 7 7 7 6 nan
nan 5 5 5 5 6 7 7 6 5 5 4 4 4 4 4 4 4 4 4 5 6 7 8 9 10 11 11 10 9 9 9 9 9 8 8 7 6 5 4 4 3 3 2 3 5 7 7 7 6 6 5 6 7 6 5 6 6 6 6 5 4 6 8 8 7 5 4 3 3 3 4 6 6 5 4 3 3 3 3 3 4 4 4 4 5 5 5 5 6 6 6 6 6 7 7 7 7 7 7 7 7 nan
nan 5 4 4 4 6 7 7 6 6 5 5 4 4 4 4 4 4 4 5 5 5 6 7 8 9 10 10 9 9 8 8 8 8 7 7 6 6 5 4 4 3 3 3 3 5 7 7 6 6 6 6 5 6 6 4 4 5 5 5 4 5 7 9 9 8 7 5 4 3 3 3 5 5 5 5 4 3 3 4 4 4 4 5 5 5 5 6 6 6 6 7 7 7 7 7 7 7 7 7 7 7 nan
nan 5 4 3 4 6 7 7 7 6 5 5 5 4 4 4 4 4 4 5 5 5 6 7 8 9 9 10 9 8 7 7 7 6 6 6 6 5 5 4 4 3 3 3 4 5 7 6 6 6 5 6 5 5 5 4 3 4 4 3 5 6 8 10 9 9 8 7 6 5 3 3 3 4 4 4 4 3 3 4 4 4 5 5 5 6 6 6 6 6 7 7 7 7 7 8 7 7 8 7 7 7 nan
nan 4 3 3 5 7 8 8 7 6 6 5 5 5 4 4 4 4 5 5 5 5 6 6 7 8 9 10 9 9 8 7 6 6 6 5 5 5 5 4 4 4 4 4 4 5 7 8 7 7 6 5 4 4 5 4 3 3 3 2 4 7 9 10 10 9 8 7 7 7 5 4 3 3 3 3 3 3 3 4 4 4 5 5 5 6 6 6 6 7 7 7 7 7 8 8 8 8 8 7 7 7 nan
nan 4 4 4 5 7 8 8 7 6 6 5 5 5 5 5 5 5 5 5 5 5 6 6 7 8 9 10 10 9 8 7 6 6 6 6 5 5 5 4 4 4 5 5 5 5 6 8 7 7 6 5 4 4 5 4 4 4 3 1 4 7 10 11 10 8 6 6 7 7 6 5 4 3 3 3 3 3 4 4 4 4 4 5 5 5 6 6 6 6 6 7 7 7 7 7 7 7 7 8 7 7 nan
nan 4 3 2 4 7 8 8 7 6 6 5 5 5 5 5 5 5 5 5 5 5 6 6 6 7 8 9 10 10 9 8 7 6 6 6 5 5 5 5 5 5 5 5 4 4 4 6 6 6 6 4 4 5 5 5 4 5 2 2 5 8 10 11 10 7 5 5 6 6 6 5 5 4 3 3 3 4 4 4 4 4 4 5 5 5 5 6 6 6 6 6 6 7 7 7 7 7 7 7 7 7 nan
nan 4 1 2 4 7 8 8 7 6 6 6 6 6 5 5 5 5 5 5 5 5 6 6 6 6 7 9 10 10 10 9 8 7 6 6 5 5 5 5 5 5 5 4 3 3 5 6 6 5 6 4 4 5 5 5 5 3 1 3 6 8 10 10 9 7 5 5 5 5 5 5 4 4 4 4 4 4 4 4 4 4 5 5 5 5 5 5 6 6 6 6 6 6 6 6 6 7 7 7 7 7 nan
nan 2 3 6 7 7 8 9 8 7 6 6 6 6 6 6 6 5 5 5 6 6 6 6 5 5 6 7 8 9 10 10 9 8 7 6 5 5 5 5 5 5 5 3 3 4 7 7 6 4 4 5 4 5 6 6 5 1 1 4 6 7 9 10 10 8 6 5 5 5 4 4 4 4 4 4 4 4 4 4 4 4 5 5 5 6 6 6 6 5 5 5 6 6 6 6 6 6 6 6 7 7 nan
nan 4 7 8 8 8 9 9 8 7 6 6 6 6 6 6 6 6 6 6 6 6 6 6 5 5 5 5 6 7 8 9 10 9 8 7 6 6 6 5 5 4 4 3 5 7 8 7 6 5 4 5 5 5 6 6 4 -0 1 6 7 7 8 10 10 9 7 5 5 5 4 4 4 4 4 3 3 3 4 4 4 5 5 5 6 6 6 6 5 5 5 5 5 6 6 6 6 6 6 6 7 7 nan
nan 6 7 7 7 8 9 9 8 7 6 5 5 6 6 6 6 6 6 6 6 6 6 5 5 4 4 4 4 4 2 4 6 7 8 7 7 6 6 5 4 3 3 5 6 7 8 7 6 5 5 5 6 6 7 6 2 -1 3 8 7 7 7 9 10 9 7 5 5 5 5 4 4 4 4 4 3 3 4 4 4 5 5 5 5 6 6 6 6 5 5 5 5 5 6 6 6 6 7 7 7 7 nan
nan 5 5 6 6 7 8 8 8 7 5 5 5 6 6 6 6 6 6 6 6 6 6 6 5 5 4 4 3 2 -0 -1 -0 1 4 7 7 6 4 3 3 4 4 6 7 7 7 7 6 6 5 5 6 6 7 5 1 0 6 9 8 7 7 8 10 9 8 7 6 6 5 5 4 4 4 3 4 4 4 4 5 5 5 5 5 6 6 7 6 6 5 5 5 5 5 5 6 6 6 7 7 7 nan
nan 5 5 5 5 6 7 7 7 6 5 5 5 5 5 5 5 5 6 6 7 7 7 7 5 4 3 4 4 4 4 2 1 -1 -1 2 3 4 2 1 2 4 6 7 7 7 7 7 6 6 5 5 5 6 6 4 1 1 7 10 9 7 6 7 9 10 9 8 7 7 6 5 4 4 4 4 4 4 4 5 5 5 5 5 5 5 6 7 7 6 6 5 5 5 5 5 5 6 6 6 6 7 nan
nan 5 5 5 5 6 6 7 6 6 5 5 5 4 4 5 4 4 5 6 7 8 8 6 4 1 1 2 3 5 7 6 6 4 1 -0 -0 1 2 2 3 5 6 7 7 7 7 6 6 6 6 5 5 6 6 4 2 2 7 10 9 8 7 7 8 9 9 8 8 7 6 5 4 4 4 4 4 5 5 5 5 5 5 5 5 6 7 8 7 7 6 6 6 5 5 5 5 5 6 6 6 6 nan
nan 4 4 4 4 5 5 6 5 5 4 5 4 3 3 1 2 3 4 5 6 7 7 4 0 -3 -1 0 3 6 7 7 7 6 6 4 3 3 4 5 6 6 6 7 6 6 6 6 6 6 6 5 5 6 6 3 1 2 6 9 9 9 9 8 7 7 7 7 6 6 5 4 4 4 4 4 5 5 5 5 5 5 5 5 6 6 7 8 8 8 7 6 6 5 5 5 5 5 5 6 6 6 nan
nan 5 4 3 4 4 4 5 5 4 3 3 2 1 1 1 1 1 2 3 3 4 4 0 -2 -3 -1 3 5 7 7 6 6 7 7 7 7 7 7 7 7 7 7 6 6 6 6 6 6 6 6 6 6 6 6 3 1 3 6 8 9 10 10 9 7 7 6 5 5 5 4 4 4 4 4 4 5 5 5 5 5 5 5 6 6 6 8 9 9 8 7 6 5 5 5 5 5 5 5 6 6 6 nan
nan 6 6 5 5 5 5 5 5 4 3 2 2 2 3 3 2 1 1 2 2 1 1 0 1 2 3 6 6 6 6 6 6 6 7 7 7 7 7 8 8 8 7 6 6 6 6 6 6 7 6 6 6 7 4 2 3 5 6 8 8 10 11 11 9 8 6 5 5 5 4 4 4 4 4 4 4 5 5 5 5 5 6 6 6 6 7 8 9 9 8 6 5 5 5 5 6 6 6 6 6 6 nan
nan 7 7 6 7 7 6 6 6 5 4 3 4 4 4 5 5 4 4 4 3 2 2 4 5 6 6 6 6 6 6 7 7 7 7 7 7 7 7 8 8 9 8 7 6 6 6 6 6 7 6 6 6 6 4 2 5 6 7 8 8 9 11 12 11 9 7 5 5 5 5 4 4 4 4 4 4 5 5 5 5 6 6 6 6 6 7 7 8 9 7 6 5 5 5 6 6 6 6 6 6 6 nan
nan 7 6 7 7 7 8 8 6 5 5 5 6 5 5 6 6 7 6 6 6 5 5 6 6 7 7 7 7 7 8 9 9 8 7 7 7 7 7 7 8 9 9 8 6 6 6 6 6 7 6 6 6 6 4 3 4 6 8 8 8 9 10 12 12 10 8 6 6 5 5 4 4 4 4 4 5 5 5 5 6 6 6 6 6 6 7 6 7 7 7 6 5 5 5 6 6 6 6 6 6 6 nan
nan 7 6 7 7 7 7 8 7 6 6 7 7 6 6 6 7 7 8 7 7 7 6 6 6 7 8 8 8 8 8 8 8 8 8 8 7 7 7 7 8 9 9 8 7 6 6 6 6 7 6 6 6 6 5 3 3 6 7 8 8 8 10 11 12 12 10 8 6 5 5 4 4 4 4 5 5 5 5 6 6 6 6 6 6 6 6 6 6 7 6 6 5 5 6 6 6 6 6 6 6 6 nan
nan 7 6 7 8 7 7 7 7 7 7 7 7 7 6 6 6 7 8 8 8 7 7 6 7 7 7 7 8 8 8 7 7 7 8 8 7 7 7 7 7 8 9 9 7 7 6 6 7 7 7 6 6 7 5 3 3 5 7 7 7 8 8 10 11 11 10 9 7 6 4 4 4 4 4 5 5 5 5 6 6 6 6 6 6 6 6 6 6 6 6 6 6 5 5 6 6 6 6 6 6 6 nan
nan 7 7 8 8 7 7 6 6 7 6 7 7 8 7 6 6 6 7 7 7 7 7 7 7 6 6 6 6 7 7 7 7 7 7 7 7 7 7 7 7 8 8 8 7 7 6 6 7 7 7 6 7 7 5 4 5 6 6 7 6 7 7 8 9 10 11 10 8 6 5 4 4 4 4 5 5 5 5 5 6 6 6 6 6 6 6 6 6 6 6 6 5 5 5 6 6 6 6 6 6 6 nan
nan 6 7 7 7 7 6 5 5 6 7 6 6 6 7 7 7 6 7 7 7 7 6 6 6 6 6 5 5 6 7 8 8 8 7 6 6 7 6 7 7 7 7 8 8 7 5 5 5 6 6 6 7 7 6 5 5 4 6 8 6 6 6 7 8 9 10 10 9 8 5 4 4 4 4 5 5 5 5 5 5 5 6 6 6 6 5 6 6 7 7 6 6 5 5 6 6 6 6 6 6 5 nan
nan 4 6 7 5 5 5 4 3 4 6 6 5 3 5 7 7 6 7 7 7 7 6 6 6 6 7 6 6 7 7 7 7 7 7 7 7 7 6 7 7 7 7 8 8 8 6 5 5 5 5 6 6 7 6 6 4 4 7 9 7 6 6 6 7 8 9 9 9 8 7 5 5 4 4 5 5 5 5 5 5 5 6 6 6 6 6 6 6 6 7 7 6 5 5 5 6 5 6 6 6 6 nan
nan 4 6 7 6 5 4 4 4 3 5 5 3 2 2 4 5 5 6 7 7 7 7 7 7 7 7 6 7 7 7 7 7 7 7 7 7 7 6 6 7 7 7 8 8 8 8 7 6 5 5 5 5 6 7 6 4 4 7 8 8 7 6 6 7 8 9 9 9 9 8 7 5 5 5 5 5 5 5 5 5 6 6 6 6 6 6 6 6 6 6 7 6 5 5 5 5 5 6 6 7 7 nan
nan 6 6 7 6 6 6 5 5 4 4 4 4 4 3 3 4 5 6 6 6 6 6 6 6 6 5 5 6 7 8 8 7 7 7 7 8 7 7 6 6 6 7 7 8 8 9 8 7 5 5 5 5 5 6 6 6 5 6 8 8 8 7 6 7 7 9 9 9 8 8 7 6 6 5 5 5 5 5 5 6 6 6 6 6 6 6 6 6 6 6 6 6 6 5 5 5 5 5 6 7 7 nan
nan 7 7 6 6 7 7 6 6 5 4 5 6 6 6 5 5 5 6 7 6 6 6 6 6 6 5 6 7 8 9 9 8 8 7 8 8 8 8 6 6 6 6 7 7 8 8 8 7 6 5 5 5 5 5 6 6 6 7 8 9 9 8 7 7 7 8 8 8 8 7 6 6 5 5 5 5 5 5 5 6 6 6 6 6 6 6 6 6 6 6 6 6 5 5 5 5 5 5 6 7 8 nan
nan 7 7 7 7 7 7 7 7 7 6 6 6 6 6 6 6 6 5 7 8 9 9 9 9 9 8 9 9 9 9 8 8 8 7 8 8 9 9 8 7 6 6 7 7 7 7 8 8 7 6 6 5 4 5 5 6 7 7 7 9 9 9 8 8 7 8 8 8 8 7 6 5 5 4 5 5 5 5 6 6 6 7 7 6 6 6 6 6 6 6 6 6 5 5 5 5 5 5 5 7 8 nan
nan 7 8 8 8 7 7 7 8 8 7 7 7 6 6 6 6 7 6 6 8 9 10 10 10 10 11 10 9 8 8 8 8 8 7 8 8 9 9 8 8 7 7 6 6 6 7 7 8 8 7 7 6 5 5 5 6 7 7 7 7 8 9 9 8 8 7 8 9 9 8 6 5 5 4 4 5 5 6 6 6 7 7 7 7 6 6 6 6 6 6 6 6 5 5 5 5 5 5 5 6 8 nan
nan 7 8 8 8 8 7 7 7 8 8 8 8 7 6 5 6 6 6 5 4 5 7 8 8 8 9 8 7 6 6 7 8 8 8 8 8 9 8 8 8 8 8 8 7 6 6 6 7 8 8 7 7 6 6 6 6 6 7 7 7 8 8 9 9 8 8 8 9 10 9 8 6 5 5 4 5 5 5 6 7 7 7 7 7 6 6 6 7 7 7 6 6 5 5 5 5 5 5 5 5 7 nan
nan 7 7 7 7 8 7 7 7 8 8 8 8 9 8 6 6 5 5 4 2 2 4 5 6 5 6 6 5 5 5 6 6 7 8 8 8 8 8 8 8 7 8 9 9 8 7 6 7 7 8 9 8 8 7 6 6 5 6 8 8 9 8 9 8 8 8 8 9 10 11 10 8 7 5 5 4 5 5 6 6 7 7 7 7 7 6 6 7 7 7 6 6 5 5 5 5 5 5 5 5 7 nan
nan 7 7 7 7 7 7 7 8 9 9 7 8 9 9 7 7 6 6 5 4 3 3 4 5 5 4 5 5 5 5 5 5 6 7 8 8 8 8 9 8 7 7 8 9 9 8 7 7 7 8 8 8 8 8 7 7 5 6 7 8 9 9 9 8 8 8 8 8 10 11 11 10 9 7 6 5 4 5 5 6 6 6 7 7 7 7 6 7 7 7 6 6 5 5 5 5 5 5 5 5 6 nan
nan 6 7 7 7 6 6 8 10 10 9 8 8 8 9 7 7 7 7 6 7 6 4 4 6 6 6 6 7 8 7 6 6 6 7 7 7 7 8 8 8 7 7 8 8 8 8 8 8 8 8 7 8 8 8 8 7 6 6 6 6 7 8 8 8 7 8 8 8 9 10 11 11 10 9 7 6 5 4 5 5 5 6 6 7 7 7 7 7 7 7 6 6 5 5 5 5 6 6 6 5 6 nan
nan 6 7 7 7 7 7 8 10 9 8 8 8 9 8 7 7 7 7 7 8 7 5 5 5 6 7 7 8 9 8 7 7 7 7 6 6 6 8 8 8 8 8 8 8 8 8 9 9 8 8 8 8 8 8 7 7 6 5 6 6 6 7 7 8 8 8 9 9 9 9 9 10 10 10 8 7 6 5 5 5 5 6 6 6 7 8 8 7 7 7 6 6 6 5 5 5 6 6 6 6 6 nan
nan 6 6 7 7 7 8 9 9 8 7 7 8 9 9 7 7 7 7 8 8 8 7 5 4 5 5 7 7 8 8 8 8 7 7 7 6 6 7 7 8 8 9 8 8 8 9 9 9 8 8 9 9 9 8 7 7 7 6 6 6 5 6 7 7 7 7 9 10 10 10 9 9 10 10 10 9 8 7 6 6 6 6 6 6 6 7 8 8 8 8 7 7 6 5 5 5 5 6 6 6 6 nan
nan 6 6 6 7 8 9 10 8 6 6 7 8 9 8 7 7 7 7 7 8 9 9 6 4 4 6 7 7 7 7 8 8 8 7 7 6 6 7 7 8 8 9 8 7 8 8 9 10 10 9 10 9 9 7 8 7 7 6 6 5 5 5 5 6 6 6 7 8 9 10 9 9 9 10 10 10 9 9 8 9 9 8 7 6 6 6 8 9 10 10 9 8 7 6 5 4 5 6 7 7 6 nan
nan 6 6 6 7 8 10 10 7 5 6 7 8 8 8 7 8 8 8 8 7 9 10 9 6 4 5 7 7 7 6 6 7 8 7 7 7 7 6 7 7 8 9 9 8 8 9 10 10 10 11 10 9 8 7 7 7 6 6 7 7 6 5 5 6 7 6 6 7 8 10 10 9 9 9 10 11 11 11 11 11 11 10 8 6 5 5 7 8 10 11 11 10 8 7 5 4 5 6 6 7 7 nan
nan 6 6 6 7 8 10 10 8 6 6 7 8 8 7 7 8 8 9 8 7 8 9 10 9 7 6 6 6 6 6 5 6 8 8 8 7 7 6 7 7 8 9 9 9 8 9 10 10 10 10 10 10 9 8 7 7 7 7 9 9 9 8 7 6 7 6 6 7 7 9 10 10 10 9 10 11 11 11 11 11 11 10 8 7 5 4 5 6 8 11 11 11 9 7 6 5 5 5 7 7 7 nan
nan 7 7 6 7 8 9 8 7 6 7 7 8 7 7 8 8 9 8 8 8 7 7 10 10 9 7 6 6 6 6 6 7 8 9 8 8 7 6 7 8 8 8 9 9 9 9 9 10 10 9 9 10 11 11 9 8 7 8 8 9 10 9 8 6 6 6 6 6 7 7 8 9 10 10 10 10 10 10 10 10 10 10 9 8 6 5 5 6 7 9 10 10 9 8 7 6 5 6 7 7 7 nan
nan 7 7 7 7 8 8 7 6 6 7 8 8 8 8 8 8 8 8 8 7 7 6 8 10 10 8 6 7 7 7 8 9 9 9 9 9 8 7 8 8 8 8 8 8 9 8 9 9 10 9 8 9 11 12 11 10 9 8 7 7 9 8 7 7 6 6 7 7 7 7 7 7 9 10 10 11 10 10 9 9 9 10 10 10 8 6 6 6 6 7 8 9 8 8 7 7 6 7 7 8 8 nan
nan 7 7 8 8 8 8 7 6 6 7 8 8 8 7 8 8 8 7 7 7 6 6 6 7 9 9 8 7 8 9 10 11 9 8 9 9 9 8 8 8 8 8 8 8 8 8 8 9 9 8 8 8 9 11 12 11 10 9 8 7 7 7 7 7 7 7 8 8 7 8 7 7 7 9 10 10 10 10 9 9 9 10 11 11 11 9 8 8 7 7 7 7 7 7 7 7 7 7 8 8 9 nan
nan 6 7 8 8 8 8 7 5 6 6 7 7 7 6 7 7 8 7 7 7 7 8 7 6 6 9 9 9 10 11 12 11 9 7 7 8 8 10 9 9 8 9 8 8 7 7 7 7 8 8 8 8 8 9 10 10 10 9 9 8 8 7 7 7 7 8 8 8 7 7 8 8 7 8 9 9 10 10 10 10 10 9 10 11 12 11 11 10 9 7 6 6 6 6 6 6 7 7 8 8 9 nan
nan 6 8 9 9 8 9 7 5 5 6 7 7 7 5 4 5 6 6 6 8 9 10 9 7 5 5 8 9 10 11 10 11 9 7 5 5 6 9 9 9 9 10 9 9 9 7 6 7 7 8 8 8 9 9 10 10 9 8 9 9 9 8 7 7 7 8 8 8 7 6 6 7 7 7 7 8 8 9 10 11 11 10 10 11 11 11 12 12 12 10 8 6 6 5 6 6 6 7 7 8 9 nan
nan 5 8 10 10 8 8 8 6 6 6 6 7 9 8 7 6 6 5 4 5 8 10 11 10 7 4 5 8 10 11 10 9 9 6 5 5 7 7 8 9 10 11 12 12 12 10 7 7 6 6 7 8 8 9 9 9 8 8 8 9 10 10 8 9 8 8 8 7 6 5 5 6 7 7 7 7 7 8 8 10 11 11 11 11 11 12 11 12 13 12 10 8 7 6 6 6 6 7 7 7 8 nan
nan 5 6 9 10 8 8 8 6 6 6 6 6 7 10 10 9 9 8 5 3 3 6 10 13 13 9 6 8 10 12 10 8 6 5 7 7 8 8 9 9 8 9 12 13 13 13 10 8 7 5 6 7 8 8 9 8 7 8 9 8 10 11 12 12 11 10 9 8 7 6 6 6 7 7 7 7 7 7 7 8 9 11 12 12 13 14 13 12 13 13 12 11 9 8 6 6 6 6 7 7 7 nan
nan 6 6 7 9 9 9 9 6 6 8 8 8 8 11 11 10 10 12 10 5 1 1 4 10 15 14 10 9 11 12 10 6 1 3 8 10 10 11 10 8 8 10 9 10 11 12 12 11 10 8 6 6 7 8 8 9 8 7 8 8 9 11 13 14 14 12 11 10 9 8 7 7 7 7 6 5 5 6 6 7 8 9 11 12 12 13 14 14 13 13 13 12 11 10 9 7 6 6 6 6 6 nan
nan 6 7 7 8 9 11 11 8 6 7 9 10 10 12 13 10 9 12 14 10 6 1 -1 3 9 13 13 11 12 11 10 6 1 0 6 10 12 12 10 9 10 11 9 8 7 8 11 14 15 14 9 8 7 7 7 8 8 7 7 8 9 10 11 12 13 12 11 11 11 11 10 8 7 6 6 4 4 4 5 6 7 8 9 10 10 10 11 12 13 14 13 11 11 12 11 9 7 6 6 6 6 nan
nan 5 4 5 7 8 11 12 11 8 6 8 9 10 10 10 9 7 8 10 11 11 8 3 1 2 6 9 10 10 10 10 8 4 3 5 6 6 7 8 8 10 11 12 10 8 7 11 13 14 16 15 13 11 9 8 8 8 8 7 8 8 9 9 9 10 10 10 11 11 11 10 10 9 8 7 7 6 5 5 5 6 7 8 9 9 10 11 11 12 12 13 13 12 12 12 11 9 8 7 6 6 nan
nan 7 3 2 5 7 9 11 11 10 7 6 8 9 9 9 8 7 7 7 8 9 10 9 5 2 2 4 5 7 11 11 10 7 7 6 4 3 4 6 9 10 10 11 10 11 10 11 10 10 10 13 15 14 13 10 9 9 9 8 7 7 7 7 7 7 8 9 10 11 10 10 10 10 9 9 10 10 9 7 6 5 5 7 7 8 9 10 12 12 12 13 13 13 13 12 11 10 9 8 7 6 nan
nan 8 6 2 2 4 8 9 8 9 8 6 7 8 10 11 9 9 9 8 7 7 8 10 9 4 3 4 3 4 8 12 11 10 8 7 5 2 2 6 7 7 6 8 9 9 10 11 10 10 8 9 12 15 15 14 11 10 9 9 7 6 5 6 6 6 8 9 10 10 10 10 10 10 9 9 10 10 9 9 8 7 6 6 6 7 8 9 10 11 12 14 15 14 13 13 12 11 9 8 8 8 nan
nan 9 7 6 3 2 4 7 7 7 7 6 7 7 8 11 11 11 11 13 12 10 7 9 10 6 2 6 7 5 4 8 11 12 10 8 6 2 2 4 4 2 3 6 8 8 11 10 9 11 9 7 9 12 13 13 13 11 11 11 10 8 6 6 7 7 8 9 9 9 10 10 10 10 10 9 9 9 9 9 9 9 8 7 7 8 9 8 8 9 11 14 16 18 15 13 12 10 9 8 8 8 nan
nan 10 8 7 6 3 1 4 7 7 7 7 7 7 8 9 11 13 13 15 15 14 10 9 12 10 5 5 8 8 3 4 8 11 11 10 8 5 3 2 1 1 1 4 7 10 12 8 6 8 9 7 7 8 9 10 12 12 13 13 13 12 10 8 7 8 8 8 8 8 9 9 9 10 10 9 9 10 10 9 9 9 9 8 8 8 10 10 8 8 9 11 13 17 18 13 11 9 7 6 6 7 nan
nan 9 10 9 8 5 1 2 5 6 7 8 7 7 8 8 8 11 14 14 12 13 13 10 12 14 12 7 8 9 7 2 5 9 12 11 11 10 7 3 1 2 2 5 8 10 9 6 5 3 5 5 6 7 8 9 12 14 14 13 13 13 13 10 8 8 8 8 7 7 8 9 9 9 10 9 10 11 12 10 10 9 9 10 9 9 10 11 10 8 7 7 8 12 15 13 9 7 6 5 5 6 nan
nan 6 9 9 9 8 5 3 3 4 7 8 8 8 8 8 7 8 12 11 9 10 10 9 10 11 13 10 7 8 9 6 5 6 8 10 14 15 13 8 5 4 3 3 5 7 5 3 4 4 6 7 7 6 6 8 10 12 12 12 12 13 13 12 10 9 9 9 8 7 7 9 9 9 9 10 10 11 12 12 11 10 10 10 10 10 10 10 10 8 7 7 7 10 11 11 9 7 6 4 5 6 nan
nan 6 9 11 10 8 8 7 6 5 6 8 8 8 8 8 8 7 9 10 9 8 7 7 7 7 10 11 7 6 10 11 8 6 4 6 12 17 16 13 12 10 6 3 4 6 6 4 5 7 8 8 6 6 4 6 6 7 8 10 11 11 12 12 12 10 10 11 10 8 7 7 9 9 8 8 9 9 11 12 11 10 10 9 9 9 10 10 10 10 10 10 10 12 12 11 10 8 5 4 5 6 nan
nan nan nan nan nan nan nan nan nan nan nan nan nan nan nan nan nan nan nan nan nan nan nan nan nan nan nan nan nan nan nan nan nan nan nan nan nan nan nan nan nan nan nan nan nan nan nan nan nan nan nan nan nan nan nan nan nan nan nan nan nan nan nan nan nan nan nan nan nan nan nan nan nan nan nan nan nan nan nan nan nan nan nan nan nan nan nan nan nan nan nan nan nan nan nan nan nan nan nan nan nan nan nan
CAPE
2 2 2 5 10 10 9 6 5 5 7 17 30 30 38 43 43 41 37 32 32 26 19 14 10 10 13 14 18 18 25 33 41 41 49 52 52 50 51 44 44 34 21 11 1 1 nan nan nan nan nan 0 5 5 20 16 16 21 15 13 13 5 64 659 505 505 489 471 487 487 564 614 626 626 563 545 545 512 346 320 320 280 218 180 148 148 138 134 105 105 78 58 45 45 33 22 22 23 17 17 17 12 8
2 1 3 10 16 16 8 4 4 4 9 19 30 30 39 39 39 43 37 31 31 32 26 23 21 21 25 29 35 35 42 50 59 59 72 75 75 77 68 55 55 40 27 14 0 0 nan nan nan nan 1 3 7 7 9 3 3 2 nan nan nan nan 175 525 570 570 504 456 414 414 391 488 507 507 552 531 531 408 301 220 220 179 157 115 87 87 78 76 63 63 57 46 28 28 21 19 19 17 16 17 17 15 13
2 1 7 18 24 24 9 3 3 3 11 19 29 29 38 43 43 42 45 36 36 38 34 32 37 37 45 55 58 58 70 100 104 104 109 113 113 102 92 65 65 49 29 13 1 1 nan nan nan nan 2 4 7 7 3 0 0 nan nan nan nan 1 118 448 562 562 466 413 343 343 227 274 362 362 386 339 339 271 203 118 118 89 70 62 60 60 57 46 40 40 31 27 17 17 14 12 12 13 15 15 15 15 14
5 7 13 24 27 27 12 4 5 5 15 24 33 33 38 43 43 43 47 44 44 42 35 41 51 51 73 103 139 139 162 187 171 171 157 145 145 133 94 71 71 52 31 12 nan nan nan nan nan nan 3 2 1 1 nan nan nan nan nan nan nan 8 82 240 360 360 374 345 280 280 205 168 233 233 225 187 187 124 105 56 56 41 33 27 28 28 25 19 16 16 12 7 6 6 7 7 7 10 13 13 13 13 14
12 10 21 30 33 33 11 6 7 7 14 24 33 33 42 47 47 47 44 51 51 41 39 45 61 61 144 189 194 194 199 204 209 209 195 161 161 148 94 71 71 53 26 6 nan nan 0 nan nan nan 6 7 nan nan nan nan nan nan nan nan nan 8 27 97 227 227 261 260 221 221 175 116 119 119 124 90 90 71 66 43 43 29 18 12 10 10 9 7 3 3 2 1 1 1 1 2 2 3 6 7 7 12 11
17 17 26 36 31 31 15 7 8 8 19 30 39 39 43 47 47 47 49 51 51 43 39 49 73 73 174 223 230 230 213 219 226 226 189 155 155 126 90 70 70 49 23 4 nan nan nan nan 1 1 1 1 nan nan nan nan nan nan nan nan nan 4 8 56 109 109 144 164 194 194 167 119 91 91 78 66 66 52 42 31 31 20 14 8 4 4 3 2 0 0 0 0 0 0 1 1 1 3 4 4 4 9 10
25 24 30 35 33 33 15 8 12 12 19 34 38 38 49 49 49 59 56 50 50 47 40 46 67 67 163 234 242 242 226 190 196 196 162 131 131 98 82 67 67 43 22 3 nan nan nan 1 3 3 nan nan nan nan nan nan nan nan nan nan nan 1 6 31 74 74 88 98 135 135 150 116 77 77 59 47 47 39 26 18 18 14 9 3 1 1 0 nan nan nan nan nan nan nan 0 1 1 2 2 2 2 6 9
41 36 35 39 37 37 19 12 14 14 25 35 41 41 51 58 58 63 64 56 56 47 42 45 64 64 136 223 253 253 238 201 168 168 138 114 114 95 73 55 55 39 19 3 nan nan nan 3 6 6 nan nan nan nan nan nan nan nan nan nan nan 3 8 26 73 73 83 86 92 92 124 118 65 65 43 31 31 16 13 7 7 3 2 nan nan nan nan nan nan nan nan nan nan nan nan nan nan 0 1 1 1 3 6
61 49 40 48 55 55 31 17 23 23 32 43 50 50 61 73 73 74 70 66 66 58 48 45 59 59 84 151 242 242 227 192 179 179 120 106 106 87 71 52 52 35 19 3 nan nan nan nan 3 3 nan nan nan nan nan nan nan nan nan 3 3 2 16 38 76 76 86 83 90 90 109 111 71 71 28 14 14 3 3 1 1 0 nan nan nan nan nan nan nan nan nan nan nan nan nan nan nan nan 0 1 1 3 4
66 54 48 56 71 71 46 26 27 27 38 50 61 61 67 78 78 81 75 76 76 64 58 52 57 57 70 103 188 188 263 224 153 153 117 102 102 89 68 45 45 29 15 2 nan nan nan nan nan nan nan nan nan nan nan nan nan nan 1 13 13 9 26 57 88 88 91 84 83 83 85 89 59 59 29 13 13 2 nan nan nan nan nan nan nan nan nan nan nan nan nan nan nan nan nan nan nan nan 0 1 1 2 3
65 53 47 56 76 76 51 35 33 33 46 60 67 67 79 91 91 91 87 83 83 75 65 58 56 56 60 83 118 118 168 174 146 146 115 97 97 75 55 38 38 22 12 0 nan nan nan nan nan nan nan nan nan nan nan nan nan nan 3 35 35 26 36 68 99 99 96 77 72 72 69 56 44 44 23 10 10 3 nan nan nan nan nan nan nan nan nan nan nan nan nan nan nan nan nan nan nan nan 1 1 1 1 2
67 55 49 54 75 75 64 38 35 35 47 63 76 76 90 91 91 96 92 93 93 86 80 67 57 57 55 67 90 90 110 125 119 119 100 82 82 66 43 30 30 16 3 nan nan nan nan nan nan nan nan nan nan nan nan nan nan 0 10 55 55 30 40 84 113 113 92 75 63 63 51 37 24 24 12 6 6 2 nan nan nan nan nan nan nan nan nan nan nan nan 0 0 0 0 0 0 0 0 1 2 2 1 2
87 73 66 48 79 79 89 54 38 38 50 68 83 83 86 92 92 93 95 103 103 101 90 75 57 57 51 56 68 68 86 96 97 97 83 66 66 51 33 21 21 9 nan nan nan nan nan nan nan nan nan nan nan nan nan nan nan 1 45 38 38 23 46 101 113 113 88 72 59 59 47 28 13 13 2 0 0 nan nan nan nan nan nan nan nan nan nan 0 1 1 1 1 1 1 1 0 0 0 1 1 1 2 1
106 85 62 90 105 105 109 72 49 49 57 75 78 78 84 89 89 92 101 104 104 105 98 78 56 56 44 41 48 48 60 73 78 78 66 54 54 39 23 15 15 0 nan nan nan nan nan nan nan nan nan nan 0 0 nan nan nan 3 63 25 25 17 39 99 112 112 98 76 56 56 36 19 4 4 0 nan nan nan nan nan nan nan nan nan nan nan nan 0 1 1 1 1 1 1 2 1 1 0 nan 0 0 1 2
64 59 43 78 126 126 144 94 71 71 69 82 82 82 85 89 89 91 100 113 113 109 100 81 58 58 36 25 25 25 30 44 52 52 49 43 43 28 17 2 2 nan nan nan nan nan nan nan nan nan nan nan nan nan nan nan nan 7 59 24 24 14 27 88 112 112 100 83 58 58 34 14 2 2 0 nan nan nan nan nan nan nan nan nan nan nan nan 0 1 1 1 0 1 1 1 2 2 1 nan nan nan nan 1
14 0 15 76 117 117 154 121 95 95 87 96 96 96 88 92 92 103 106 113 113 118 102 77 52 52 27 11 4 4 3 17 21 21 27 26 26 17 2 nan nan nan nan nan nan nan nan nan nan nan nan nan nan nan nan nan nan 8 73 35 35 15 20 61 108 108 98 82 62 62 37 13 3 3 0 nan nan nan nan nan nan nan nan nan nan nan nan 0 0 0 0 0 0 0 0 1 1 2 1 nan nan nan nan
nan nan 2 69 92 92 134 137 114 114 105 97 99 99 94 87 87 97 104 109 109 116 99 72 37 37 4 nan nan nan nan nan nan nan 1 4 4 2 nan nan nan nan nan nan nan nan nan nan nan nan nan nan nan nan nan nan nan 24 77 49 49 20 19 44 94 94 89 82 65 65 40 24 4 4 1 nan nan nan nan nan nan nan nan nan nan nan nan 0 0 0 nan nan 0 0 0 0 0 2 2 0 0 nan nan
nan nan 50 52 67 67 103 132 129 129 112 103 100 100 90 90 90 90 101 110 110 114 100 57 18 18 nan nan nan nan nan nan nan nan nan nan nan nan nan nan nan nan nan nan nan nan nan nan nan nan nan nan nan nan nan nan nan 50 80 63 63 34 24 39 85 85 98 83 70 70 46 26 6 6 0 nan nan nan nan nan nan nan nan nan nan nan nan nan 0 0 nan nan nan nan nan nan nan 1 2 0 0 0 nan
nan 20 43 45 53 53 77 115 131 131 115 105 97 97 94 91 91 90 96 102 102 105 81 41 4 4 nan nan nan nan nan nan nan nan nan nan nan nan nan nan nan nan nan nan nan nan nan nan nan nan nan nan nan nan nan 1 1 35 70 71 71 53 40 46 82 82 99 89 69 69 51 30 7 7 0 nan nan nan nan nan nan nan nan nan nan nan nan nan 0 0 nan nan nan nan nan nan nan nan 0 0 0 nan nan
13 66 56 48 42 42 53 79 100 100 98 86 77 77 87 89 89 87 83 76 76 63 37 11 0 0 nan nan nan nan nan nan nan nan nan nan nan nan nan nan nan nan nan nan nan nan nan nan nan nan nan nan nan nan nan 7 7 25 57 70 70 83 74 60 76 76 80 80 65 65 47 24 5 5 nan nan nan nan nan nan nan nan nan nan nan nan nan nan nan nan nan nan nan nan nan nan nan nan nan nan nan nan nan
59 75 75 65 49 49 57 85 120 120 103 56 18 18 18 40 40 60 42 40 40 35 18 2 nan nan nan nan nan nan nan nan nan nan nan nan nan nan nan nan nan nan nan nan nan nan nan nan nan nan nan nan nan nan nan 7 7 20 51 63 63 92 92 69 61 61 66 65 57 57 40 15 3 3 nan nan nan nan nan nan nan nan nan nan nan nan nan nan nan nan nan nan nan nan nan nan nan nan nan nan nan nan nan
45 50 55 48 44 44 54 77 110 110 86 23 8 8 nan nan nan nan 0 2 2 3 3 0 nan nan nan nan nan nan nan nan nan nan nan nan nan nan nan nan nan nan nan nan nan nan nan nan nan nan nan nan nan nan nan 7 7 17 47 59 59 87 98 87 59 59 63 60 48 48 36 14 2 2 nan nan nan nan nan nan nan nan nan nan nan nan nan nan nan nan nan nan nan nan nan nan nan nan nan nan nan nan nan
26 36 43 33 29 29 49 74 73 73 51 8 6 6 nan nan nan nan nan nan nan nan nan 8 nan nan nan nan nan nan nan nan nan nan nan nan nan nan nan nan nan nan nan nan nan nan nan nan nan nan nan nan nan nan nan 2 2 9 41 55 55 86 109 100 59 59 61 53 42 42 28 12 0 0 nan nan nan nan nan nan nan nan nan nan nan nan nan nan nan nan nan nan nan nan nan nan nan nan nan nan nan nan 0
9 27 25 24 28 28 39 78 50 50 22 12 4 4 nan nan nan nan nan nan nan nan 0 8 0 0 nan nan nan nan nan nan nan nan nan nan nan nan nan nan nan nan nan nan nan nan nan nan nan nan nan nan nan nan nan nan nan 4 37 53 53 84 107 108 69 69 62 55 41 41 29 10 nan nan nan nan nan nan nan nan nan nan nan nan nan nan nan nan nan nan nan nan nan nan nan nan nan nan nan nan nan nan 2
nan 19 9 14 27 27 31 58 42 42 1 3 4 4 nan nan nan nan nan nan nan nan nan nan nan nan nan nan nan nan nan nan nan nan nan nan nan nan nan nan nan nan nan nan nan nan nan nan nan nan nan nan nan nan nan nan nan 0 24 49 49 71 97 108 79 79 65 56 43 43 29 9 0 0 nan nan nan nan nan nan nan nan nan nan nan nan nan nan nan nan nan nan nan nan nan nan nan nan nan nan nan nan 2
nan 9 nan 3 22 22 15 43 31 31 3 nan 0 0 nan nan nan nan nan nan nan nan nan nan nan nan nan nan nan nan nan nan nan nan nan nan nan nan nan nan nan nan nan nan nan nan nan nan nan nan nan nan nan nan nan nan nan nan 11 34 34 56 83 98 89 89 70 60 43 43 27 9 0 0 nan nan nan nan nan nan nan nan nan nan nan nan nan nan nan nan nan nan nan nan nan nan nan nan nan nan nan nan 2
nan nan nan nan 10 10 18 25 13 13 1 nan nan nan nan nan nan nan nan nan nan nan nan nan nan nan nan nan nan nan nan nan nan nan nan nan nan nan nan nan nan nan nan nan nan nan nan nan nan nan nan nan nan nan nan nan nan nan 1 22 22 47 68 82 92 92 83 61 46 46 30 12 0 0 nan nan nan nan nan nan nan nan nan nan nan nan nan nan nan nan nan nan nan nan nan nan nan nan nan nan nan nan 1
3 nan nan nan 8 8 16 15 10 10 nan nan nan nan nan nan nan nan nan nan nan nan nan nan nan nan nan nan nan nan nan nan nan nan nan nan nan nan nan nan nan nan nan nan nan nan nan nan nan nan nan nan nan nan nan nan nan nan nan 13 13 35 55 68 86 86 91 74 57 57 33 17 1 1 nan nan nan nan nan nan nan nan nan nan nan nan nan nan nan nan nan nan nan nan nan nan nan nan nan nan nan nan 1
9 nan nan 19 25 25 25 36 10 10 nan 4 4 4 nan nan nan nan nan nan nan nan nan nan nan nan nan nan nan nan nan nan nan nan nan nan nan nan nan nan nan nan nan nan nan nan nan nan nan nan nan nan nan nan nan nan nan nan nan 4 4 37 48 48 71 71 84 85 69 69 44 22 3 3 nan nan nan nan nan nan nan nan nan nan nan nan nan nan nan nan nan nan nan nan nan nan nan nan nan nan nan nan 1
10 1 nan 23 31 31 36 32 36 36 7 14 35 35 4 nan nan nan nan nan nan nan nan nan nan nan nan nan nan nan nan nan nan nan nan nan nan nan nan nan nan nan nan nan nan nan nan nan nan nan nan nan nan nan nan nan nan nan nan nan nan 33 60 57 60 60 72 85 74 74 51 26 7 7 nan nan nan nan nan nan nan nan nan nan nan nan nan nan nan nan nan nan nan nan nan nan nan nan nan nan nan nan 0
8 2 2 13 15 15 31 33 40 40 32 32 30 30 19 0 0 nan nan nan nan nan nan nan nan nan nan nan nan nan nan nan nan nan nan nan nan nan nan nan nan nan nan nan nan nan nan nan nan nan nan nan nan nan nan nan nan nan nan nan nan 10 56 84 56 56 67 76 73 73 63 33 11 11 nan nan nan nan nan nan nan nan nan nan nan nan nan nan nan nan nan nan nan nan nan nan nan nan nan nan nan nan 1
2 1 0 5 7 7 10 24 38 38 32 27 20 20 16 3 3 0 nan nan nan nan nan nan nan nan nan nan nan nan nan nan nan nan nan nan nan nan nan nan nan nan nan nan nan nan nan nan nan nan nan nan nan nan nan nan nan nan nan nan nan nan 24 65 90 90 101 74 61 61 59 38 17 17 2 nan nan nan nan nan nan nan nan nan nan nan nan nan nan nan nan 0 nan nan nan nan nan nan nan nan nan nan 2
0 nan nan 1 1 1 2 4 13 13 16 15 13 13 11 6 6 1 0 nan nan nan nan nan nan nan nan nan nan nan nan nan nan nan nan nan nan nan nan nan nan nan nan nan nan nan nan nan nan nan nan nan nan nan nan nan nan nan nan nan nan nan 2 30 73 73 104 65 49 49 54 36 24 24 9 1 1 nan nan nan nan nan nan nan nan nan nan 0 0 0 0 1 nan nan nan nan nan nan nan nan nan nan 2
nan nan nan 0 0 0 1 2 1 1 3 3 6 6 7 5 5 1 1 nan nan nan nan nan nan nan nan nan nan nan nan nan nan nan nan nan nan nan nan nan nan nan nan nan nan nan nan nan nan nan nan nan nan nan nan nan nan nan nan nan nan nan nan 6 28 28 49 47 41 41 42 35 23 23 14 5 5 nan nan nan nan nan nan nan nan nan nan 0 1 1 2 2 0 0 nan nan nan nan nan nan nan nan nan
0 nan nan nan 0 0 0 0 0 0 2 3 4 4 6 5 5 2 1 nan nan nan nan nan nan nan nan nan nan nan nan nan nan nan nan nan nan nan nan nan nan nan nan nan nan nan nan nan nan nan nan nan nan nan nan nan nan nan nan nan nan nan nan nan 5 5 15 35 45 45 33 32 23 23 13 6 6 0 nan nan nan nan nan nan nan nan nan 0 2 2 3 3 2 2 nan nan nan nan nan nan nan nan nan
0 nan nan nan nan nan nan nan 0 0 1 1 3 3 6 4 4 2 1 1 1 nan nan nan nan nan nan nan nan nan nan nan nan nan nan nan nan nan nan nan nan nan nan nan nan nan nan nan nan nan nan nan nan nan nan nan nan nan nan nan nan nan nan nan nan nan 0 6 21 21 32 24 20 20 11 4 4 nan nan nan nan nan nan nan nan nan 0 2 4 4 6 6 4 4 1 nan nan nan nan nan nan nan nan
nan nan nan nan nan nan nan nan nan nan 0 1 2 2 4 3 3 2 2 1 1 1 nan nan nan nan nan nan nan nan nan nan nan nan nan nan nan nan nan nan nan nan nan nan nan nan nan nan nan nan nan nan nan nan nan nan nan nan nan nan nan nan nan nan nan nan nan nan 2 2 23 23 19 19 11 4 4 nan nan nan nan nan nan 0 3 3 6 8 9 9 10 11 10 10 6 2 2 nan nan nan nan nan nan
nan nan nan nan nan nan nan nan nan nan 0 0 1 1 2 2 2 2 1 1 1 1 0 nan nan nan nan nan nan nan nan nan nan nan nan nan nan nan nan nan nan nan nan nan nan nan nan nan nan nan nan nan nan nan nan nan nan nan nan nan nan nan nan nan nan nan nan nan nan nan 5 19 17 17 12 5 5 nan nan nan nan nan 0 2 10 10 17 25 24 24 20 17 16 16 13 9 9 4 0 nan nan nan nan
nan nan nan nan nan nan nan nan nan nan nan nan 0 0 1 1 1 1 1 0 0 0 0 0 nan nan nan nan nan nan nan nan nan nan nan nan nan nan nan nan nan nan nan nan nan nan nan nan nan nan nan nan nan nan nan nan nan nan nan nan nan nan nan nan nan nan nan nan nan nan nan 2 10 10 8 4 4 nan nan nan nan nan nan 1 8 8 32 45 44 44 41 35 26 26 21 17 17 13 6 nan nan nan nan
nan nan nan nan nan nan nan nan nan nan nan nan nan nan 1 1 1 1 1 0 0 0 0 nan nan nan nan nan nan nan nan nan nan nan nan nan nan nan nan nan nan nan nan nan nan nan nan nan nan nan nan nan nan nan nan nan nan nan nan nan nan nan nan nan nan nan nan nan nan nan nan nan 0 0 5 5 5 1 nan nan nan nan nan 0 3 3 30 53 69 69 64 50 41 41 29 25 25 21 17 9 9 nan nan
nan nan nan nan nan nan nan nan nan nan nan nan nan nan 0 0 0 0 0 0 0 0 0 nan nan nan nan nan nan nan nan nan nan nan nan nan nan nan nan nan nan nan nan nan nan nan nan nan nan nan nan nan nan nan nan nan nan nan nan nan nan nan nan nan nan nan nan nan nan nan nan nan nan nan 0 4 4 2 0 nan nan nan nan nan 0 0 17 57 77 77 79 62 49 49 41 29 29 28 26 21 21 10 1
nan nan nan nan nan nan nan nan nan nan nan nan nan nan nan nan nan nan nan 0 0 nan 0 nan nan nan nan nan nan nan nan nan nan nan nan nan nan nan nan nan nan nan nan nan nan nan nan nan nan nan nan nan nan nan nan nan nan nan nan nan nan nan nan nan nan nan nan nan nan nan nan nan nan nan nan 0 0 5 4 2 2 2 nan nan nan nan 10 40 75 75 90 73 58 58 51 39 39 35 34 33 33 26 14
nan nan nan nan nan nan nan nan nan nan nan nan nan nan nan nan nan nan nan nan nan nan nan nan nan nan nan nan nan nan nan nan nan nan nan nan nan nan nan nan nan nan nan nan nan nan nan nan nan nan nan nan nan nan nan nan nan nan nan nan nan nan nan nan nan nan nan nan nan nan nan nan nan nan nan nan nan nan nan nan nan 2 0 nan nan nan nan 2 19 19 60 84 73 73 55 47 47 45 42 43 43 44 39
nan nan nan nan nan nan nan nan nan nan nan nan nan nan nan nan nan nan nan nan nan nan nan nan nan nan nan nan nan nan nan nan nan nan nan nan nan nan nan nan nan nan nan nan nan nan nan nan nan nan nan nan nan nan nan nan nan nan nan nan nan nan nan nan nan nan nan nan nan nan nan nan nan nan nan nan nan nan nan nan nan nan nan nan nan nan nan nan 6 6 28 65 71 71 53 45 45 41 40 45 45 45 44
nan nan nan nan nan nan nan nan nan nan nan nan nan nan nan nan nan nan nan nan nan nan nan nan nan nan nan nan nan nan nan nan nan nan nan nan nan nan nan nan nan nan nan nan nan nan nan nan nan nan nan nan nan nan nan nan nan nan nan nan nan nan nan nan nan nan nan nan nan nan nan nan nan nan nan nan nan nan nan nan nan nan nan nan nan nan nan nan 1 1 11 42 49 49 47 45 45 40 44 46 46 52 51
nan nan nan nan nan nan nan nan nan nan nan nan nan nan nan nan nan nan nan nan nan nan nan nan nan nan nan nan nan nan nan nan nan nan nan nan nan nan nan nan nan nan nan nan nan nan nan nan nan nan nan nan nan nan nan nan nan nan nan nan nan nan nan nan nan nan nan nan nan nan nan nan nan nan nan nan nan nan nan nan nan nan nan nan nan nan nan nan 0 0 7 21 37 37 42 42 42 40 44 47 47 53 55
nan nan nan nan nan nan nan nan nan nan nan nan nan nan nan nan nan nan nan nan nan nan nan nan nan nan nan nan nan nan nan nan nan nan nan nan nan nan nan nan nan nan nan nan nan nan nan nan nan nan nan nan nan nan nan nan nan nan nan nan nan nan nan nan nan nan nan nan nan nan nan nan nan nan nan nan nan nan nan nan nan nan nan nan nan nan nan nan 1 1 4 12 23 23 30 32 32 33 38 44 44 57 60
nan nan nan nan nan nan nan nan nan nan nan nan nan nan nan nan nan nan nan nan nan nan nan nan nan nan nan nan nan nan nan nan nan nan nan nan nan nan nan nan nan nan nan nan nan nan nan nan nan nan nan nan nan nan nan nan nan nan nan nan nan nan nan nan nan nan nan nan nan nan nan nan nan nan nan nan nan nan nan nan nan nan nan nan nan nan nan nan 1 1 3 6 12 12 17 20 20 27 35 42 42 49 58
nan nan nan nan nan nan nan nan nan nan nan nan nan nan nan nan nan nan nan nan nan nan nan nan nan nan nan nan nan nan nan nan nan nan nan nan nan nan nan nan nan nan nan nan nan nan nan nan nan nan nan nan nan nan nan nan nan nan nan nan nan nan nan nan nan nan nan nan nan nan nan nan nan nan nan nan nan nan nan nan nan nan nan nan nan nan nan nan 0 0 3 5 7 7 12 16 16 21 30 40 40 45 49
nan nan nan nan nan nan nan nan nan nan nan nan nan nan nan nan nan nan nan nan nan nan nan nan nan nan nan nan nan nan nan nan nan nan nan nan nan nan nan nan nan nan nan nan nan nan nan nan nan nan nan nan nan nan nan nan nan nan nan nan nan nan nan nan nan nan nan nan nan nan nan nan nan nan nan nan nan nan nan nan nan nan nan nan nan nan nan nan 0 0 2 6 6 6 8 12 12 18 27 35 35 40 39
nan nan nan nan nan nan nan nan nan nan nan nan nan nan nan nan nan nan nan nan nan nan nan nan nan nan nan nan nan nan nan nan nan nan nan nan nan nan nan nan nan nan nan nan nan nan nan nan nan nan nan nan nan nan nan nan nan nan nan nan nan nan nan nan nan nan nan nan nan nan nan nan nan nan nan nan nan nan nan nan nan nan nan nan nan nan nan nan nan nan 1 5 7 7 8 10 10 15 21 31 31 35 38
nan nan nan nan nan nan nan nan nan nan nan nan nan nan nan nan nan nan nan nan nan nan nan nan nan nan nan nan nan nan nan nan nan nan nan nan nan nan nan nan nan nan nan nan nan nan nan nan nan nan nan nan nan nan nan nan nan nan nan nan nan nan nan nan nan nan nan nan nan nan nan nan nan nan nan nan nan nan nan nan nan nan nan nan nan nan nan nan nan nan nan 0 7 7 10 9 9 9 14 25 25 33 37
nan nan nan nan nan nan nan nan nan nan nan nan nan nan nan nan nan nan nan nan nan nan nan nan nan nan nan nan nan nan nan nan nan nan nan nan nan nan nan nan nan nan nan nan nan nan nan nan nan nan nan nan nan nan nan nan nan nan nan nan nan nan nan nan nan nan nan nan nan nan nan nan nan nan nan nan nan nan nan nan nan nan nan nan nan nan nan nan nan nan nan nan 2 2 6 7 7 9 11 22 22 30 35
nan nan nan nan nan nan nan nan nan nan nan nan nan nan nan nan nan nan nan nan nan nan nan nan nan nan nan nan nan nan nan nan nan nan nan nan nan nan nan nan nan nan nan nan 1 1 nan nan nan nan nan nan nan nan nan nan nan nan nan nan nan nan nan nan nan nan nan nan nan nan nan nan nan nan nan nan nan nan nan nan nan nan nan nan nan nan nan nan nan nan nan nan nan nan nan 8 8 9 11 15 15 24 31
nan nan nan nan nan nan nan nan nan nan nan nan nan nan nan nan nan nan nan nan nan nan nan nan nan nan nan nan nan nan nan nan nan nan nan nan nan nan 0 nan nan nan nan nan nan nan nan nan nan nan nan nan nan nan nan nan nan nan nan nan nan nan nan nan nan nan nan nan nan nan nan nan nan nan nan nan nan nan nan nan nan nan nan nan nan nan nan nan nan nan nan nan nan nan nan 4 4 8 10 12 12 17 22
nan nan nan nan nan nan nan nan nan nan nan nan nan nan nan nan nan nan nan nan nan nan nan nan nan nan nan nan nan nan nan nan nan nan nan nan nan nan 2 0 0 0 2 nan nan nan nan nan nan nan nan nan nan nan nan nan nan nan nan nan nan nan nan nan nan nan nan nan nan nan nan nan nan nan nan nan nan nan nan nan nan nan nan nan nan nan nan nan nan nan nan nan nan nan nan nan nan 3 8 9 9 10 12
nan nan nan nan nan nan nan nan nan nan nan nan nan nan nan nan nan nan nan nan nan nan nan nan nan nan nan nan nan nan nan nan nan nan nan nan nan nan nan 0 0 2 1 11 3 3 nan nan nan nan nan nan nan nan nan nan nan nan nan nan nan nan nan nan nan nan nan nan nan nan nan nan nan nan nan nan nan nan nan nan nan nan nan nan nan nan nan nan nan nan nan nan nan nan nan nan nan 1 5 8 8 6 6
nan nan nan nan nan nan nan 0 nan nan nan nan nan nan nan nan nan nan nan nan nan nan nan nan nan nan nan nan nan nan nan nan nan nan nan nan nan nan nan nan nan nan nan nan 22 22 nan nan nan nan nan nan nan nan nan nan nan nan nan nan nan nan nan nan nan nan nan nan nan nan nan nan nan nan nan nan nan nan nan nan nan nan nan nan nan nan nan nan nan nan nan nan nan nan nan nan nan nan 3 7 7 5 5
1 2 1 0 nan nan nan 1 1 1 nan nan nan nan nan nan nan nan nan nan nan nan nan nan nan nan nan nan nan nan 0 0 nan nan nan nan nan nan nan nan nan nan nan nan nan nan nan nan 0 0 0 4 nan nan nan nan nan nan nan nan nan nan nan nan nan nan nan nan nan nan nan nan nan nan nan nan nan nan nan nan nan nan nan nan nan nan nan nan nan nan nan nan nan nan nan nan nan nan 1 5 5 5 4
48 25 42 14 2 2 nan 3 8 8 12 nan nan nan nan 0 0 nan 71 nan nan nan nan nan nan nan nan nan nan nan 1 1 nan nan nan nan nan nan nan nan nan nan nan nan nan nan nan nan 2 2 3 1 6 6 2 nan nan nan nan nan nan nan nan nan nan nan nan nan nan nan nan nan nan nan nan nan nan nan nan nan nan nan nan nan nan nan nan nan nan nan nan nan nan nan nan nan nan nan nan 3 3 3 3
131 91 87 72 32 32 17 48 21 21 18 nan nan nan 3 11 11 6 35 nan nan nan nan 0 nan nan nan nan nan nan 0 3 nan nan nan nan nan nan nan nan nan nan nan nan nan nan nan nan nan nan 1 1 1 1 4 2 2 nan nan nan nan nan nan nan nan nan nan nan nan nan nan nan nan nan nan nan nan nan nan nan nan nan nan nan nan nan nan nan nan nan nan nan nan nan nan nan nan nan nan 1 1 1 0